timestamp,wind_dir_avg,wind_spd_avg,wind_spd_max_dir,wind_spd_gust,battery_voltage,lat,long
2023-05-27 00:04:00+00:00,206.0,6.74,209.0,7.57,12.97,47.59359,-54.27349
2023-05-27 00:14:00+00:00,203.0,7.12,208.0,8.1,12.49,47.59359,-54.27349
2023-05-27 00:24:00+00:00,206.0,7.8,208.0,8.83,12.49,47.59359,-54.27349
2023-05-27 00:34:00+00:00,213.0,8.43,216.0,9.13,12.49,47.59359,-54.27349
2023-05-27 00:44:00+00:00,215.0,7.81,220.0,8.97,12.49,47.59359,-54.27349
2023-05-27 00:54:00+00:00,214.0,6.82,219.0,7.56,12.49,47.59359,-54.27349
2023-05-27 01:04:00+00:00,210.0,6.54,211.0,7.41,12.49,47.59359,-54.27349
2023-05-27 01:14:00+00:00,211.0,6.58,216.0,7.41,12.41,47.59359,-54.27349
2023-05-27 01:24:00+00:00,208.0,6.51,215.0,7.48,12.41,47.59359,-54.27349
2023-05-27 01:34:00+00:00,199.0,7.02,204.0,8.08,12.41,47.59359,-54.27349
2023-05-27 01:44:00+00:00,198.0,6.48,205.0,7.1,12.41,47.59359,-54.27349
2023-05-27 01:54:00+00:00,199.0,5.95,213.0,6.83,12.41,47.59359,-54.27349
2023-05-27 02:04:00+00:00,210.0,6.19,215.0,7.23,12.41,47.59359,-54.27349
2023-05-27 02:14:01+00:00,211.0,6.08,213.0,6.91,12.33,47.59359,-54.27349
2023-05-27 02:24:01+00:00,211.0,7.57,211.0,8.83,12.33,47.59359,-54.27349
2023-05-27 02:34:01+00:00,209.0,7.89,209.0,8.3,12.33,47.59359,-54.27349
2023-05-27 02:44:01+00:00,199.0,7.49,204.0,8.28,12.33,47.59359,-54.27349
2023-05-27 02:54:01+00:00,196.0,6.52,194.0,6.95,12.33,47.59359,-54.27349
2023-05-27 03:04:01+00:00,199.0,6.78,194.0,8.74,12.33,47.59359,-54.27349
2023-05-27 03:14:00+00:00,202.0,7.03,202.0,7.76,12.33,47.59359,-54.27349
2023-05-27 03:24:00+00:00,202.0,7.03,205.0,7.62,12.33,47.59359,-54.27349
2023-05-27 03:34:00+00:00,205.0,6.52,204.0,7.36,12.33,47.59359,-54.27349
2023-05-27 03:44:00+00:00,207.0,6.49,206.0,7.16,12.33,47.59359,-54.27349
2023-05-27 03:54:00+00:00,209.0,6.89,213.0,8.08,12.33,47.59359,-54.27349
2023-05-27 04:04:00+00:00,209.0,6.91,210.0,7.71,12.33,47.59359,-54.27349
2023-05-27 04:14:01+00:00,210.0,6.05,216.0,7.07,12.33,47.59359,-54.27349
2023-05-27 04:24:01+00:00,204.0,6.59,206.0,7.5,12.33,47.59359,-54.27349
2023-05-27 04:34:01+00:00,206.0,5.88,213.0,6.57,12.33,47.59359,-54.27349
2023-05-27 04:44:01+00:00,213.0,6.19,212.0,7.16,12.33,47.59359,-54.27349
2023-05-27 04:54:01+00:00,216.0,4.93,215.0,6.15,12.33,47.59359,-54.27349
2023-05-27 05:04:01+00:00,223.0,4.25,250.0,5.03,12.33,47.59359,-54.27349
2023-05-27 05:14:00+00:00,214.0,4.99,212.0,5.79,12.33,47.59359,-54.27349
2023-05-27 05:24:00+00:00,221.0,6.85,219.0,7.64,12.33,47.59359,-54.27349
2023-05-27 05:34:00+00:00,221.0,7.0,223.0,7.9,12.33,47.59359,-54.27349
2023-05-27 05:44:00+00:00,219.0,8.1,219.0,9.05,12.33,47.59359,-54.27349
2023-05-27 05:54:00+00:00,218.0,7.4,215.0,8.64,12.33,47.59359,-54.27349
2023-05-27 06:04:00+00:00,216.0,7.7,214.0,8.51,12.33,47.59359,-54.27349
2023-05-27 06:14:00+00:00,211.0,7.11,211.0,8.06,12.25,47.59359,-54.27349
2023-05-27 06:24:00+00:00,211.0,7.29,211.0,8.16,12.25,47.59359,-54.27349
2023-05-27 06:34:00+00:00,205.0,6.43,208.0,7.21,12.25,47.59359,-54.27349
2023-05-27 06:44:00+00:00,206.0,6.44,207.0,7.38,12.25,47.59359,-54.27349
2023-05-27 06:54:00+00:00,209.0,7.63,211.0,8.69,12.25,47.59359,-54.27349
2023-05-27 07:04:00+00:00,215.0,7.4,215.0,8.39,12.25,47.59359,-54.27349
2023-05-27 07:14:01+00:00,213.0,8.43,210.0,9.24,12.25,47.59359,-54.27349
2023-05-27 07:24:01+00:00,225.0,6.83,237.0,8.62,12.25,47.59359,-54.27349
2023-05-27 07:34:01+00:00,227.0,9.05,228.0,10.92,12.25,47.59359,-54.27349
2023-05-27 07:44:01+00:00,227.0,8.74,226.0,9.81,12.25,47.59359,-54.27349
2023-05-27 07:54:01+00:00,219.0,7.63,228.0,8.91,12.25,47.59359,-54.27349
2023-05-27 08:04:01+00:00,217.0,7.01,214.0,8.01,12.25,47.59359,-54.27349
2023-05-27 08:14:00+00:00,216.0,8.58,219.0,9.66,12.17,47.59359,-54.27349
2023-05-27 08:24:00+00:00,218.0,8.04,219.0,8.85,12.17,47.59359,-54.27349
2023-05-27 08:34:00+00:00,219.0,7.26,218.0,8.38,12.17,47.59359,-54.27349
2023-05-27 08:44:00+00:00,216.0,7.82,219.0,8.8,12.17,47.59359,-54.27349
2023-05-27 08:54:00+00:00,217.0,8.13,216.0,8.95,12.17,47.59359,-54.27349
2023-05-27 09:04:00+00:00,229.0,7.78,232.0,8.85,12.17,47.59359,-54.27349
2023-05-27 09:14:01+00:00,235.0,7.52,236.0,8.53,12.25,47.59359,-54.27349
2023-05-27 09:24:01+00:00,233.0,6.98,231.0,8.38,12.25,47.59359,-54.27349
2023-05-27 09:34:01+00:00,229.0,7.89,227.0,9.24,12.25,47.59359,-54.27349
2023-05-27 09:44:01+00:00,225.0,7.42,227.0,9.03,12.25,47.59359,-54.27349
2023-05-27 09:54:01+00:00,211.0,6.19,213.0,6.99,12.25,47.59359,-54.27349
2023-05-27 10:04:01+00:00,208.0,7.08,207.0,7.72,12.25,47.59359,-54.27349
2023-05-27 10:14:00+00:00,210.0,7.51,212.0,8.08,12.73,47.59359,-54.27349
2023-05-27 10:24:00+00:00,214.0,6.9,218.0,7.55,12.73,47.59359,-54.27349
2023-05-27 10:34:00+00:00,209.0,7.89,209.0,8.97,12.73,47.59359,-54.27349
2023-05-27 10:44:00+00:00,205.0,8.85,210.0,9.94,12.73,47.59359,-54.27349
2023-05-27 10:54:00+00:00,212.0,7.54,209.0,9.19,12.73,47.59359,-54.27349
2023-05-27 11:04:00+00:00,216.0,7.31,222.0,8.19,12.73,47.59359,-54.27349
2023-05-27 11:14:00+00:00,215.0,7.83,220.0,8.53,13.53,47.59359,-54.27349
2023-05-27 11:24:00+00:00,210.0,9.61,209.0,10.43,13.53,47.59359,-54.27349
2023-05-27 11:34:00+00:00,212.0,8.54,204.0,10.19,13.53,47.59359,-54.27349
2023-05-27 11:44:00+00:00,219.0,8.54,219.0,9.41,13.53,47.59359,-54.27349
2023-05-27 11:54:00+00:00,215.0,7.44,217.0,8.46,13.53,47.59359,-54.27349
2023-05-27 12:04:00+00:00,219.0,7.27,219.0,8.13,13.53,47.59359,-54.27349
2023-05-27 12:14:00+00:00,235.0,8.36,236.0,9.6,13.29,47.59359,-54.27349
2023-05-27 12:24:00+00:00,234.0,8.38,232.0,9.54,13.29,47.59359,-54.27349
2023-05-27 12:34:00+00:00,232.0,8.96,227.0,10.43,13.29,47.59359,-54.27349
2023-05-27 12:44:00+00:00,230.0,8.35,229.0,9.92,13.29,47.59359,-54.27349
2023-05-27 12:54:00+00:00,229.0,8.37,229.0,9.64,13.29,47.59359,-54.27349
2023-05-27 13:04:00+00:00,229.0,8.24,231.0,9.74,13.29,47.59359,-54.27349
2023-05-27 13:14:00+00:00,226.0,7.24,215.0,8.79,13.68,47.59359,-54.27349
2023-05-27 13:24:00+00:00,231.0,7.29,235.0,8.7,13.68,47.59359,-54.27349
2023-05-27 13:34:00+00:00,230.0,8.43,228.0,9.39,13.68,47.59359,-54.27349
2023-05-27 13:44:00+00:00,224.0,6.56,218.0,8.83,13.68,47.59359,-54.27349
2023-05-27 13:54:00+00:00,223.0,9.14,224.0,10.6,13.68,47.59359,-54.27349
2023-05-27 14:04:00+00:00,224.0,8.52,224.0,9.78,13.68,47.59359,-54.27349
2023-05-27 14:14:00+00:00,219.0,8.6,218.0,9.35,13.6,47.59359,-54.27349
2023-05-27 14:24:00+00:00,226.0,8.73,228.0,10.42,13.6,47.59359,-54.27349
2023-05-27 14:34:00+00:00,221.0,8.48,217.0,9.74,13.6,47.59359,-54.27349
2023-05-27 14:44:00+00:00,205.0,7.88,206.0,8.51,13.6,47.59359,-54.27349
2023-05-27 14:54:00+00:00,205.0,9.15,202.0,10.26,13.6,47.59359,-54.27349
2023-05-27 15:04:00+00:00,204.0,8.25,208.0,9.32,13.6,47.59359,-54.27349
2023-05-27 15:14:00+00:00,203.0,9.47,201.0,10.81,13.68,47.59359,-54.27349
2023-05-27 15:24:00+00:00,203.0,9.5,196.0,11.11,13.68,47.59359,-54.27349
2023-05-27 15:34:00+00:00,210.0,10.49,211.0,11.95,13.68,47.59359,-54.27349
2023-05-27 15:44:00+00:00,211.0,10.81,209.0,11.77,13.68,47.59359,-54.27349
2023-05-27 15:54:00+00:00,207.0,10.68,208.0,11.66,13.68,47.59359,-54.27349
2023-05-27 16:04:00+00:00,210.0,10.19,215.0,12.13,13.68,47.59359,-54.27349
2023-05-27 16:14:00+00:00,207.0,10.35,208.0,11.62,13.84,47.59359,-54.27349
2023-05-27 16:24:00+00:00,202.0,9.94,203.0,11.18,13.84,47.59359,-54.27349
2023-05-27 16:34:00+00:00,206.0,10.91,207.0,11.84,13.84,47.59359,-54.27349
2023-05-27 16:44:00+00:00,208.0,10.87,211.0,12.37,13.84,47.59359,-54.27349
2023-05-27 16:54:00+00:00,206.0,8.8,210.0,10.34,13.84,47.59359,-54.27349
2023-05-27 17:04:00+00:00,207.0,9.37,211.0,10.01,13.84,47.59359,-54.27349
2023-05-27 17:14:00+00:00,208.0,8.94,211.0,10.41,14.4,47.59359,-54.27349
2023-05-27 17:24:00+00:00,211.0,9.43,213.0,10.93,14.4,47.59359,-54.27349
2023-05-27 17:34:00+00:00,210.0,9.18,209.0,10.04,14.4,47.59359,-54.27349
2023-05-27 17:44:00+00:00,207.0,8.64,210.0,9.81,14.4,47.59359,-54.27349
2023-05-27 17:54:00+00:00,208.0,8.53,210.0,10.78,14.4,47.59359,-54.27349
2023-05-27 18:04:00+00:00,213.0,8.97,210.0,9.9,14.4,47.59359,-54.27349
2023-05-27 18:14:00+00:00,218.0,7.64,220.0,8.14,13.6,47.59359,-54.27349
2023-05-27 18:24:00+00:00,212.0,5.51,216.0,8.31,13.6,47.59359,-54.27349
2023-05-27 18:34:00+00:00,215.0,6.8,218.0,8.47,13.6,47.59359,-54.27349
2023-05-27 18:44:00+00:00,239.0,4.36,243.0,6.76,13.6,47.59359,-54.27349
2023-05-27 18:54:00+00:00,285.0,7.59,286.0,8.67,13.6,47.59359,-54.27349
2023-05-27 19:04:00+00:00,282.0,7.85,284.0,9.05,13.6,47.59359,-54.27349
2023-05-27 19:14:00+00:00,298.0,5.93,308.0,6.61,13.6,47.59359,-54.27349
2023-05-27 19:24:00+00:00,276.0,6.68,277.0,7.37,13.6,47.59359,-54.27349
2023-05-27 19:34:00+00:00,284.0,6.36,289.0,7.15,13.6,47.59359,-54.27349
2023-05-27 19:44:00+00:00,282.0,5.74,282.0,6.75,13.6,47.59359,-54.27349
2023-05-27 19:54:00+00:00,271.0,5.72,270.0,6.28,13.6,47.59359,-54.27349
2023-05-27 20:04:00+00:00,281.0,4.72,286.0,5.07,13.6,47.59359,-54.27349
2023-05-27 20:14:00+00:00,321.0,6.37,322.0,7.11,13.76,47.59359,-54.27349
2023-05-27 20:24:00+00:00,309.0,7.2,312.0,7.89,13.76,47.59359,-54.27349
2023-05-27 20:34:00+00:00,307.0,7.16,309.0,8.77,13.76,47.59359,-54.27349
2023-05-27 20:44:00+00:00,336.0,10.2,331.0,10.94,13.76,47.59359,-54.27349
2023-05-27 20:54:00+00:00,326.0,9.7,325.0,10.96,13.76,47.59359,-54.27349
2023-05-27 21:04:00+00:00,319.0,7.11,320.0,7.81,13.76,47.59359,-54.27349
2023-05-27 21:14:00+00:00,327.0,8.85,330.0,10.36,13.68,47.59359,-54.27349
2023-05-27 21:24:00+00:00,326.0,8.79,326.0,10.59,13.68,47.59359,-54.27349
2023-05-27 21:34:00+00:00,339.0,6.67,340.0,7.21,13.68,47.59359,-54.27349
2023-05-27 21:44:00+00:00,341.0,8.79,342.0,10.54,13.68,47.59359,-54.27349
2023-05-27 21:54:00+00:00,333.0,7.92,341.0,9.52,13.68,47.59359,-54.27349
2023-05-27 22:04:00+00:00,342.0,10.53,343.0,12.17,13.68,47.59359,-54.27349
2023-05-27 22:14:00+00:00,331.0,7.55,329.0,8.33,13.44,47.59359,-54.27349
2023-05-27 22:24:00+00:00,338.0,6.65,338.0,7.88,13.44,47.59359,-54.27349
2023-05-27 22:34:00+00:00,337.0,10.67,341.0,12.11,13.44,47.59359,-54.27349
2023-05-27 22:44:00+00:00,341.0,9.59,334.0,10.92,13.44,47.59359,-54.27349
2023-05-27 22:54:00+00:00,333.0,7.24,340.0,8.61,13.44,47.59359,-54.27349
2023-05-27 23:04:00+00:00,324.0,9.16,323.0,10.58,13.44,47.59359,-54.27349
2023-05-27 23:14:00+00:00,341.0,8.19,342.0,9.32,12.97,47.59359,-54.27349
2023-05-27 23:24:00+00:00,334.0,6.32,335.0,6.88,12.97,47.59359,-54.27349
2023-05-27 23:34:00+00:00,341.0,5.82,339.0,6.4,12.97,47.59359,-54.27349
2023-05-27 23:44:00+00:00,345.0,8.1,350.0,9.04,12.97,47.59359,-54.27349
2023-05-27 23:54:00+00:00,345.0,7.27,350.0,8.4,12.97,47.59359,-54.27349
